Tracyton, WA (98393)

1:37 AM PDT on September 02, 2015 (GMT -0700)
Roswell Drive | | Change Station
CLOSE
Current Station
Personal Weather Station
Location: Bremerton, WA
Elevation: 368 ft
Nearby Weather Stations

Elev 368 ft 47.60 °N, 122.63 °W | Updated 5 minutes ago

Mostly Cloudy
Mostly Cloudy
56.8 °F
Feels Like 56.8 °F
N
1.7
Wind Variable Wind from WSW

Today
High -- | Low -- °F
--% Chance of Precip.
Yesterday
High -- | Low -- °F
Precip. -- in
6:30 AM 7:49 PM
Waning Gibbous, 82% visible
Pressure 29.81 in
Visibility 10.0 miles
Clouds Scattered Clouds 1100 ft
Dew Point 56 °F
Humidity 99%
Rainfall 0.00 in
Snow Depth Not available.
UV 0 out of 12
Pollen .40 out of 12
Air Quality Not available.
Flu Activity Not available.
METAR KPWT 020835Z AUTO 19013G19KT 10SM SCT011 13/12 A2981 RMK AO1
Pressure 29.81 in
Visibility 10.0 miles
Clouds Scattered Clouds 1100 ft
Dew Point 56 °F
Humidity 99%
Rainfall 0.00 in
Snow Depth Not available.
UV 0 out of 12
Pollen .40 out of 12
Air Quality Not available.
Flu Activity Not available.
METAR KPWT 020835Z AUTO 19013G19KT 10SM SCT011 13/12 A2981 RMK AO1

10-Day Weather Forecast

×

Almanac

Astronomy

Sep. 02, 2015 Rise Set
Actual Time
Civil Twilight
Nautical Twilight
Astronomical Twilight
Moon
Length of Visible Light
Length of Day
Tomorrow will be .
, % of the Moon is Illuminated

Today's Extremes

State Highs State Lows

Community

WunderPhotos

Upload Photos

1,851,728 photos uploaded!

WunderBlogs® & News

Nearby

Air Quality

  Air Quality AQ Index Pollutant
Not available.

Snow Depth

Station Depth Elevation

Earthquake Activity

City Distance Mag. Time & Date
Minimum magnitude displayed is 2.5.

Coastal Water Temperatures

Place Temperature

Stations

Nearby Weather Stations

Station Location Temp. Windchill Dew Point Humidity Wind Precip. Elev Updated Type